Погода в Аралколе

Поиск расширенной информации на нашем сайте:

Полезная информация:

Новости сайта



02.01.2020
Опубликован Долгосрочный прогноз погоды по городам России и ближнего зарубежья на январь 2020 года.
Карты: Прогноз на январь и февраль 2020 года, Сравнение прогнозируемой аномалии приземной температуры воздуха на январь 2020 года по разным моделям.




Погода в Аралколе - сегодня

Время (UTC), дата Ветер
(°,м/с) 
Видим.   Явления Облачность Т
(°С)
Тd
(°С)
f(%) Тe
(°С)
Pmin
(гПа)
dP
(гПа)
Po
(мм)
O2
(г/м3)
Тmin Tmax R s Состояние
почвы
12 22.10.21 200 (Ю) 14000 м    н/о 
+5.6 +3.9 89 +3  1014.9  1.3  738  291           
15 22.10.21 190 (Ю) 20000 м    н/о 
+6.3 +4.6 89 +4  1015.5  0.6  738  290    +6.3       
18 22.10.21 200 (Ю) 20000 м    н/о 
+6.5 +3.5 81 +4  1015.8  0.3  739  290    +6.3       
21 22.10.21 200 (Ю) 20000 м    н/о 
+6.4 +2.7 77 +3  1016.1  0.3  739  290           
00 23.10.21 210 (ЮЗ) 19000 м    н/о 
+5.5 +3.5 87 +2  1016.7  0.5  739  291           
03 23.10.21 210 (ЮЗ) 20000 м    н/о 
+4.8 +2.8 87 +2  1017.8  740  293        <0.5   
06 23.10.21 230 (ЮЗ) 20000 м    н/о 
+10.1 +5.3 72 +8  1018.3  1.1  741  287           
09 23.10.21 220 (ЮЗ) 10{15}  20000 м    н/о 
+14.4 +6 57 +13  1018.4  0.5  741  283           
12 23.10.21 220 (ЮЗ) 20000 м    н/о 
+14.1 +6.5 60 +13  1018.9  0.5  741  283           
15 23.10.21 210 (ЮЗ) 20000 м    н/о 
+11.3 +7.6 78 +10  1020.7  1.4  743  286    +14.4       
18 23.10.21 210 (ЮЗ) 20000 м    н/о 
+9.3 +7.4 88 +8  1021.5  0.6  743  288    +14.4       
21 23.10.21 210 (ЮЗ) 20000 м    н/о 
+7.8 +7.1 95 +6  1021.9  0.2  743  290           
00 24.10.21 190 (Ю) 14000 м    н/о 
+5.1 +5.1 100 +3  1022.1  -0.1  743  293           
03 24.10.21 190 (Ю) 19000 м    н/о 
+5.2 +4.3 94 +3  1022.1  743  293        <0.5   
06 24.10.21 190 (Ю) 20000 м    н/о 
+9.8 +1.7 57 +8  1021  -0.6  743  289           
09 24.10.21 190 (Ю) 11  20000 м    н/о 
+14 -3.3 30 +12  1018.6  -1.9  741  284           
12 24.10.21 190 (Ю) 20000 м    н/о 
+12.9 -6.1 26 +11  1017.7  -1  740  285           
15 24.10.21 180 (Ю) 20000 м    н/о 
+7.2 -2.5 50 +5  1018.5  0.2  741  291    +14.9       
18 24.10.21 180 (Ю) 20000 м    н/о 
+3.9 -2.9 61 +1  1018  -0.9  740  294    +14.9       
21 24.10.21 180 (Ю) 20000 м    н/о 
+2.1 -2.8 70 -1  1017.2  -0.9  739  296           
00 25.10.21 180 (Ю) 20000 м    н/о 
+1.6 -2.3 75 -1  1016.7  -0.6  739  296           
03 25.10.21 180 (Ю) 20000 м    н/о 
+1.2 -2.2 78 1016.6  -0.1  739  297        <0.5   
06 25.10.21 170 (Ю) 20000 м    н/о 
+7.3 -1.6 53 +6  1015.1  -0.8  738  290           
09 25.10.21 170 (Ю) 20000 м    н/о 
+11.3 -2.8 37 +10  1012.5  -2.1  737  285           
12 25.10.21 180 (Ю) 20000 м    н/о 
+11 -0.5 45 +10  1010.9  -1.6  735  285           
Время (UTC), дата Ветер
(°,м/с) 
Видим.   Явления Облачность Т
(°С)
Тd
(°С)
f(%) Тe
(°С)
Pmin
(гПа)
dP
(гПа)
Po
(мм)
O2
(г/м3)
Тmin Tmax R s Состояние
почвы

Для получения пояснительной информации подведите курсор к названию столбца.

ПОГОДА в Аралколе - архив

Всё, что Вы хотите узнать о погоде в Аралколе - удобно и подробно!

Выберите нужную дату (начиная с 1 января 2019* года) и нажмите кнопку "Найти".
Будут отображены архивные сводки погоды по пункту Аралколь, начиная с указанной даты.


Отображать данные в формате CSV (для использования в таблицах Excel)


Внимание! Наш архив погоды предназначен исключительно для личного некоммерческого использования в познавательных целях. Если Вам необходимы официальные справки о состоянии погоды (для производственных, юридических, коммерческих и т.п. целей), обращайтесь в органы Росгидромета.

*Примечание: данная дата относится к архиву по метеостанциям СССР (Россия, СНГ, Балтия).
Архив по метеостанциям Зарубежной Европы и Азии (кроме Китая) хранится 10 дней, по другим регионам земного шара (Китай, Африка, Америка, Австралия, Океания) - 1 день.

Аралколь - район местоположения метеостанции


Название, широта, долгота, высота метеостанции:
Аралколь 51.1°ш. 62.7°д. 230 м над ур. моря [Казахстан]

Дополнительная информация

В oтличие oт бoльшинства пoгoдных сайтoв мы публикуем пoдрoбную метеoинфoрмацию в детальнoм прoфессиoнальнoм фoрмате.

Характеристики температуры и влажнoсти вoздуха измеряются на высoте 2 м в тени вдали oт зданий и деревьев.
Скoрoсть ветра измеряется на высoте 10 м (на урoвне рoста челoвека скoрoсть ветра ниже в 1.5-2 раза). Если метеoстанция нахoдится в гoрoде или в лесу, тo скoрoсть ветра занижена на 2-4 м/с пo сравнению с oткрытым местoм. Скoрoсть ветра над акватoриями крупных рек и oзёр, а также на вершинах хoлмoв на 2-5 м/с выше, чем в oбычных услoвиях.
Атмoсфернoе давление в разных тoчках местнoсти мoжет значительнo oтличаться oт давления на метеoстанции, в зависимoсти oт услoвий рельефа (при пoдъёме на 10 м давление пoнижается примернo на 1 мм рт.ст.).